[[{"header":{"parameterUnit":"m.s-1","parameterCategory":1,"la1":30.2991,"la2":30.254,"lo1":-89.0895,"lo2":-89.0444,"dy":0.0017,"dx":0.0017,"nx":28,"ny":28,"refTime":"2023-08-16T09:00:00:Z","depth":0,"parameterNumber":2,"parameterNumberName":"U-component_of_WINDS"},"data":[0,0,0,0,0,0,0,0,0,0,0,0,0,0,0,0,0,0,0,0,0,0,0,0,0,0,0,0,0,0,0,0,0,0,0,0,0,0,0,0,0,0,0,0,0,0,0,0,0,0,0,0,0,0,0,0,0,0,-0.8422,-0.8422,0,-0.8433,-0.8434,-0.8434,-0.8365,-0.8363,-0.8361,-0.8359,-0.8373,-0.8375,-0.8377,0,0,0,0,0,0,0,0,0,0,0,0,0,-0.8342,-0.8343,-0.8422,-0.8422,-0.8422,-0.8433,-0.8434,-0.8434,-0.8365,-0.8363,-0.836,-0.8358,-0.8372,-0.8374,-0.8377,0,0,0,0,0,0,0,0,0,0,0,0,0,-0.8367,-0.8344,-0.8422,-0.8389,-0.8386,-0.8433,-0.8434,-0.8434,-0.8366,-0.8363,-0.836,-0.8357,-0.8371,-0.8374,-0.8377,-0.8457,0,0,-0.8387,-0.8389,0,0,0,0,0,0,0,0,-0.8366,-0.837,-0.8394,-0.8392,-0.8389,-0.8395,-0.841,-0.8441,-0.8366,-0.8374,-0.8359,-0.8356,-0.8382,-0.8385,-0.8393,-0.8457,-0.8458,-0.8388,-0.839,-0.8391,-0.8392,0,0,0,0,0,0,0,-0.8364,-0.8369,-0.8426,-0.8394,-0.8391,-0.8374,-0.8375,-0.8416,-0.8394,-0.8373,-0.8368,-0.837,-0.838,-0.839,-0.8393,-0.8458,-0.8388,-0.8391,-0.8393,-0.8394,-0.8588,-0.8591,0,0,0,0,0,0,-0.8367,-0.8368,-0.8426,-0.8427,-0.837,-0.8378,-0.8379,-0.8396,-0.8394,-0.8391,-0.8373,-0.8367,-0.8386,-0.8389,-0.8393,-0.8487,-0.8391,-0.8394,-0.8396,-0.8585,-0.8589,-0.8592,0,0,0,0,0,0,-0.8365,-0.8372,-0.8426,-0.8396,-0.8402,-0.8383,-0.8402,-0.8397,-0.8407,-0.8394,-0.839,-0.8387,-0.8384,-0.8389,-0.8441,-0.8486,-0.8396,-0.8399,-0.8581,-0.8586,-0.859,-0.8674,0,0,0,0,0,0,-0.8363,-0.8372,-0.8402,-0.8397,-0.8404,-0.8474,-0.8405,-0.84,-0.8413,-0.8406,-0.8406,-0.8403,-0.8382,-0.8437,-0.8445,-0.8489,-0.8401,-0.8577,-0.8583,-0.8589,-0.8668,-0.8681,-0.8693,0,0,0,0,0,-0.8361,-0.8426,-0.8404,-0.8411,-0.844,-0.8476,-0.848,-0.8454,-0.8417,-0.8447,-0.8438,-0.8403,-0.8479,-0.8443,-0.8451,-0.8497,-0.8574,-0.8581,-0.8588,-0.8662,-0.8679,-0.8693,0,0,0,0,0,0,-0.8437,-0.8424,-0.84,-0.8466,-0.8473,-0.8465,-0.8502,-0.8473,-0.8491,-0.8483,-0.845,-0.8451,-0.851,-0.8508,-0.8468,-0.8574,-0.852,-0.853,-0.8573,-0.8589,-0.8602,-0.8602,-0.8404,0,0,0,0,0,-0.8461,-0.8491,-0.8478,-0.8537,-0.8542,-0.8521,-0.8536,-0.8515,-0.8521,-0.8524,-0.8519,-0.8527,-0.8552,-0.857,-0.8593,-0.8666,-0.8666,-0.8702,-0.8715,-0.8725,-0.8734,-0.8774,-0.879,-0.8616,-0.8616,-0.8615,0,0,-0.8512,-0.8509,-0.853,-0.8553,-0.8555,-0.8588,-0.8524,-0.8561,-0.8585,-0.853,-0.858,-0.8576,-0.8582,-0.8646,-0.8673,-0.8646,-0.8782,-0.8734,-0.8743,-0.8746,-0.8783,-0.8799,-0.8814,-0.8621,-0.862,-0.8619,0,0,-0.8622,-0.8622,-0.8671,-0.8675,-0.868,-0.8666,-0.8677,-0.8674,-0.8669,-0.8718,-0.8678,-0.8705,-0.875,-0.8757,-0.8766,-0.8877,-0.8846,-0.8885,-0.8953,-0.8992,-0.9006,-0.9018,-0.9059,-0.9074,-0.8893,-0.8894,-0.8894,0,-0.8685,-0.8731,-0.87,-0.874,-0.8752,-0.8702,-0.8752,-0.8757,-0.877,-0.8779,-0.8748,-0.8804,-0.8804,-0.8869,-0.8896,-0.8904,-0.8918,-0.8886,-0.9006,-0.9018,-0.9029,-0.9068,-0.9083,-0.8899,-0.8898,-0.8897,-0.8897,0,-0.8809,-0.8842,-0.8882,-0.8895,-0.891,-0.8955,-0.8931,-0.8951,-0.8928,-0.8917,-0.8968,-0.8967,-0.8989,-0.9002,-0.898,-0.9064,-0.9047,-0.9011,-0.8958,-0.9051,-0.9087,-0.9101,-0.8906,-0.8904,-0.8902,-0.8901,0,0,-0.897,-0.8964,-0.8979,-0.8985,-0.8986,-0.9011,-0.9053,-0.9074,-0.9092,-0.9102,-0.9137,-0.9176,-0.9143,-0.9153,-0.9131,-0.9165,-0.9255,-0.9125,-0.9125,-0.9151,-0.9348,-0.9377,-0.9395,-0.9233,-0.9236,-0.9238,-0.9348,0,-0.9079,-0.9151,-0.9124,-0.9198,-0.9229,-0.9181,-0.9218,-0.9223,-0.9214,-0.9238,-0.9227,-0.9256,-0.921,-0.9216,-0.9247,-0.9238,-0.9294,-0.9229,-0.9267,-0.9269,-0.927,-0.9413,-0.9443,-0.9548,-0.9362,-0.9364,-0.9366,0,-0.9216,-0.9231,-0.9309,-0.9304,-0.9316,-0.935,-0.9367,-0.9391,-0.9395,-0.9386,-0.9397,-0.9368,-0.9409,-0.9353,-0.9411,-0.9367,-0.9381,-0.9378,-0.9382,-0.9386,-0.9325,-0.9424,-0.958,-0.9597,-0.9388,-0.9386,-0.9384,0,-0.9328,-0.9367,-0.9419,-0.9424,-0.942,-0.9445,-0.9445,-0.9446,-0.946,-0.9475,-0.9484,-0.9503,-0.9515,-0.9531,-0.9508,-0.9469,-0.9569,-0.9511,-0.9564,-0.9565,-0.9589,-0.9589,-0.9753,-0.9594,-0.9594,-0.9594,-0.9593,0,-0.9454,-0.9504,-0.9469,-0.9501,-0.9556,-0.9523,-0.9578,-0.9572,-0.9574,-0.9604,-0.9563,-0.9593,-0.9559,-0.9586,-0.9568,-0.9619,-0.9624,-0.9618,-0.9613,-0.9623,-0.9625,-0.9634,-0.9627,-0.9598,-0.9597,-0.9596,-0.9595,0,-0.9589,-0.9568,-0.9621,-0.9612,-0.9611,-0.9652,-0.9645,-0.9674,-0.9661,-0.97,-0.9707,-0.9687,-0.9716,-0.9694,-0.9722,-0.971,-0.9778,-0.9762,-0.9777,-0.9773,-0.9828,-0.9824,-1.0007,-1.0029,-0.9854,-0.9856,-0.9857,0,-0.9672,-0.971,-0.9704,-0.9722,-0.9724,-0.9752,-0.9766,-0.9735,-0.9752,-0.9759,-0.9788,-0.9813,-0.9832,-0.988,-0.9869,-0.989,-0.9875,-0.9937,-0.9879,-0.9888,-0.9879,-0.9878,-0.9882,-0.9951,-0.9953,-0.9954,-0.9956,0,-0.9823,-0.981,-0.9832,-0.985,-0.9868,-0.9881,-0.9891,-0.9907,-0.9876,-0.9896,-0.9925,-0.994,-0.9968,-0.9994,-1.0012,-1.0011,-0.9979,-0.9974,-0.9988,-1.0,-1.0008,-1.0006,-0.9812,-0.9971,-0.9969,-0.9968,-0.9967,-0.9967,-0.9936,-0.9967,-0.9969,-0.9994,-0.9998,-1.0008,-1.0036,-1.0025,-1.0049,-1.007,-1.0049,-1.0085,-1.0087,-1.0107,-1.011,-1.0138,-1.0112,-1.0132,-1.0137,-1.0143,-1.0152,-1.0001,-1.014,-1.014,-1.0139,-1.0139,-1.0139,0,-1.0086,-1.0084,-1.0108,-1.0123,-1.0143,-1.0109,-1.0118,-1.0138,-1.0169,-1.0174,-1.0193,-1.0226,-1.0251,-1.024,-1.0262,-1.0286,-1.0272,-1.0293,-1.0292,-1.0293,-1.0172,-1.0159,-1.0304,-1.0304,-1.0304,-1.0304,-1.0304,-1.0304,-1.0167,-1.0218,-1.0206,-1.0258,-1.0256,-1.029,-1.0298,-1.0307,-1.0311,-1.035,-1.037,-1.0362,-1.0361,-1.0382,-1.0404,-1.04,-1.0411,-1.0438,-1.0429,-1.0318,-1.0301,-1.0286,-1.0274,-1.044,-1.044,-1.0548,-1.0549,-1.055]},{"header":{"parameterUnit":"m.s-1","parameterCategory":1,"la1":30.2991,"la2":30.254,"lo1":-89.0895,"lo2":-89.0444,"dy":0.0017,"dx":0.0017,"nx":28,"ny":28,"refTime":"2023-08-16T09:00:00:Z","depth":0,"parameterNumber":3,"parameterNumberName":"V-component_of_WINDS"},"data":[0,0,0,0,0,0,0,0,0,0,0,0,0,0,0,0,0,0,0,0,0,0,0,0,0,0,0,0,0,0,0,0,0,0,0,0,0,0,0,0,0,0,0,0,0,0,0,0,0,0,0,0,0,0,0,0,0,0,-4.6941,-4.6941,0,-4.6916,-4.6916,-4.6916,-4.6825,-4.6823,-4.6821,-4.6819,-4.6796,-4.6797,-4.6798,0,0,0,0,0,0,0,0,0,0,0,0,0,-4.6911,-4.6912,-4.6941,-4.6941,-4.694,-4.6917,-4.6916,-4.6916,-4.6825,-4.6823,-4.682,-4.6818,-4.6795,-4.6797,-4.6798,0,0,0,0,0,0,0,0,0,0,0,0,0,-4.6909,-4.6912,-4.6941,-4.6892,-4.6888,-4.6917,-4.6916,-4.6916,-4.6826,-4.6823,-4.6819,-4.6817,-4.6795,-4.6797,-4.6799,-4.6873,0,0,-4.6805,-4.6806,0,0,0,0,0,0,0,0,-4.6909,-4.691,-4.69,-4.6896,-4.689,-4.687,-4.6897,-4.6902,-4.6826,-4.6849,-4.6819,-4.6815,-4.6823,-4.6823,-4.6825,-4.6872,-4.6871,-4.6805,-4.6806,-4.6807,-4.6807,0,0,0,0,0,0,0,-4.6909,-4.6911,-4.6931,-4.69,-4.6894,-4.6872,-4.6868,-4.6897,-4.6854,-4.6847,-4.684,-4.6839,-4.682,-4.6823,-4.6824,-4.6871,-4.6805,-4.6807,-4.6808,-4.6809,-4.6978,-4.6981,0,0,0,0,0,0,-4.6916,-4.6911,-4.6932,-4.6931,-4.6892,-4.6875,-4.6871,-4.688,-4.6854,-4.6846,-4.6841,-4.6834,-4.6821,-4.6822,-4.6823,-4.6907,-4.6807,-4.6809,-4.681,-4.6974,-4.6978,-4.6982,0,0,0,0,0,0,-4.6916,-4.6919,-4.6933,-4.6919,-4.6919,-4.6879,-4.689,-4.6881,-4.6884,-4.6849,-4.6841,-4.6852,-4.6819,-4.682,-4.6861,-4.6905,-4.681,-4.6811,-4.697,-4.6976,-4.698,-4.7078,0,0,0,0,0,0,-4.6915,-4.6919,-4.6947,-4.692,-4.692,-4.6972,-4.6893,-4.6883,-4.6888,-4.6878,-4.6857,-4.6851,-4.6817,-4.6859,-4.6863,-4.6906,-4.6813,-4.6966,-4.6973,-4.6979,-4.7071,-4.7086,-4.7099,0,0,0,0,0,-4.6915,-4.6977,-4.6949,-4.6952,-4.6954,-4.6975,-4.6974,-4.6933,-4.6892,-4.6919,-4.6897,-4.6852,-4.69,-4.6864,-4.6868,-4.6912,-4.6963,-4.6971,-4.6978,-4.7065,-4.7083,-4.7099,0,0,0,0,0,0,-4.701,-4.6972,-4.6941,-4.6996,-4.6989,-4.6959,-4.6993,-4.6954,-4.6959,-4.6951,-4.69,-4.6896,-4.6944,-4.6932,-4.6893,-4.6983,-4.6924,-4.6933,-4.6989,-4.7006,-4.702,-4.7021,-4.6815,0,0,0,0,0,-4.7038,-4.7057,-4.7023,-4.7075,-4.7073,-4.7034,-4.7041,-4.7009,-4.7001,-4.6997,-4.6978,-4.6971,-4.6985,-4.6995,-4.7005,-4.7069,-4.7063,-4.7102,-4.7116,-4.7128,-4.7136,-4.7168,-4.7184,-4.7006,-4.7006,-4.7006,0,0,-4.7095,-4.7076,-4.7092,-4.7093,-4.7084,-4.7105,-4.7032,-4.7058,-4.7073,-4.7001,-4.7038,-4.7024,-4.7014,-4.7066,-4.7089,-4.7058,-4.7184,-4.7137,-4.7147,-4.7148,-4.7177,-4.7194,-4.7209,-4.7011,-4.701,-4.701,0,0,-4.7209,-4.7197,-4.7238,-4.723,-4.7217,-4.7191,-4.7201,-4.7177,-4.7164,-4.72,-4.7147,-4.7165,-4.719,-4.7184,-4.7184,-4.7296,-4.7255,-4.7301,-4.7374,-4.7406,-4.742,-4.7432,-4.7471,-4.7486,-4.7309,-4.731,-4.731,0,-4.7281,-4.731,-4.7265,-4.7293,-4.7295,-4.7231,-4.7272,-4.7267,-4.7259,-4.7262,-4.7228,-4.7257,-4.7246,-4.7296,-4.7323,-4.7326,-4.7335,-4.7303,-4.7422,-4.7433,-4.7444,-4.748,-4.7495,-4.7315,-4.7315,-4.7314,-4.7314,0,-4.74,-4.7421,-4.7456,-4.7448,-4.7454,-4.7489,-4.7449,-4.7461,-4.7429,-4.7407,-4.7445,-4.7428,-4.7434,-4.7444,-4.7414,-4.749,-4.7471,-4.7431,-4.737,-4.7467,-4.7501,-4.7514,-4.7323,-4.7321,-4.732,-4.7318,0,0,-4.7573,-4.7539,-4.7552,-4.7547,-4.7528,-4.7544,-4.7576,-4.7581,-4.7592,-4.7588,-4.7614,-4.7636,-4.7598,-4.7599,-4.7567,-4.7595,-4.7684,-4.7551,-4.755,-4.7575,-4.7766,-4.7795,-4.7812,-4.7657,-4.7659,-4.7661,-4.7766,0,-4.768,-4.7732,-4.7692,-4.7751,-4.777,-4.7709,-4.7737,-4.7729,-4.7709,-4.7722,-4.77,-4.7716,-4.7665,-4.7665,-4.769,-4.7668,-4.7721,-4.766,-4.768,-4.7681,-4.7683,-4.783,-4.7862,-4.7961,-4.7779,-4.7781,-4.7783,0,-4.7812,-4.7813,-4.7875,-4.785,-4.7857,-4.7882,-4.7883,-4.7897,-4.7886,-4.7869,-4.787,-4.7831,-4.7861,-4.7803,-4.7844,-4.7803,-4.7809,-4.78,-4.7802,-4.7802,-4.7737,-4.7832,-4.7992,-4.8007,-4.7803,-4.7801,-4.78,0,-4.7931,-4.7948,-4.7986,-4.7984,-4.7957,-4.7977,-4.7967,-4.7953,-4.7958,-4.7959,-4.7962,-4.7967,-4.797,-4.7975,-4.7939,-4.79,-4.7985,-4.7923,-4.7971,-4.7972,-4.7991,-4.799,-4.8153,-4.7997,-4.7997,-4.7997,-4.7996,0,-4.8055,-4.8094,-4.8039,-4.8063,-4.8105,-4.8059,-4.8102,-4.8086,-4.8074,-4.8093,-4.8042,-4.8062,-4.8013,-4.8028,-4.8,-4.8037,-4.804,-4.8027,-4.8019,-4.8031,-4.8032,-4.8033,-4.8025,-4.8001,-4.8,-4.7999,-4.7998,0,-4.8194,-4.8159,-4.8196,-4.8167,-4.8161,-4.8193,-4.8169,-4.819,-4.8166,-4.8191,-4.8195,-4.8158,-4.8173,-4.8137,-4.8147,-4.8128,-4.8182,-4.8163,-4.8185,-4.8179,-4.8229,-4.8224,-4.8397,-4.8417,-4.825,-4.8252,-4.8253,0,-4.8274,-4.8303,-4.8277,-4.8286,-4.8278,-4.8293,-4.8298,-4.8254,-4.8261,-4.825,-4.8273,-4.8283,-4.8288,-4.8315,-4.8289,-4.8297,-4.8277,-4.8337,-4.8278,-4.8289,-4.8277,-4.8275,-4.8277,-4.8349,-4.8351,-4.8353,-4.8354,0,-4.8421,-4.8402,-4.841,-4.8412,-4.8419,-4.8419,-4.8415,-4.8426,-4.8378,-4.8389,-4.8403,-4.8407,-4.8417,-4.8427,-4.8429,-4.8419,-4.8379,-4.8373,-4.8384,-4.8396,-4.8407,-4.8401,-4.8217,-4.8369,-4.8368,-4.8367,-4.8366,-4.8365,-4.8532,-4.8554,-4.8539,-4.855,-4.8542,-4.854,-4.8557,-4.8536,-4.8546,-4.8549,-4.8523,-4.8542,-4.853,-4.8528,-4.8522,-4.8537,-4.851,-4.8527,-4.8531,-4.8535,-4.8543,-4.8406,-4.8538,-4.8537,-4.8537,-4.8536,-4.8536,0,-4.8674,-4.8661,-4.8672,-4.8667,-4.8676,-4.8637,-4.8631,-4.8641,-4.8658,-4.865,-4.8656,-4.8672,-4.8682,-4.8658,-4.8664,-4.8681,-4.8663,-4.8684,-4.8682,-4.868,-4.8567,-4.8556,-4.8698,-4.8698,-4.8698,-4.8698,-4.8698,-4.8698,-4.8749,-4.8784,-4.8764,-4.8794,-4.8781,-4.8799,-4.8798,-4.8796,-4.8789,-4.8809,-4.8816,-4.88,-4.8785,-4.879,-4.8798,-4.879,-4.8795,-4.8822,-4.8809,-4.8704,-4.8688,-4.8673,-4.8662,-4.8824,-4.8824,-4.892,-4.8921,-4.8921]}]]